Location: Bangkok
(13.7500°N, 100.5170°E)
Time: 11:05:17
(UTC+07:00)

Hubble Space Telescope - Visible Passes

Search period start: 01 February 2015 00:00
Search period end: 11 February 2015 00:00
Orbit: 544 x 548 km, 28.5° (Epoch: 31 January)

Date Brightness Start Highest point End Pass type
(mag) Time Alt. Az. Time Alt. Az. Time Alt. Az.
01 Feb 3.2 18:43:25 10° NNW 18:44:35 11° N 18:45:43 10° N visible
03 Feb 3.5 20:08:46 10° NNW 20:08:49 10° NNW 20:08:49 10° NNW visible
04 Feb 3.2 20:00:30 10° NNW 20:01:28 14° NNW 20:01:28 14° NNW visible
05 Feb 2.7 19:52:14 10° NW 19:54:09 19° N 19:54:09 19° N visible
06 Feb 2.1 19:44:01 10° NW 19:46:56 27° N 19:46:56 27° N visible
07 Feb 1.4 19:35:48 10° NW 19:39:42 38° NNE 19:39:47 38° NNE visible
08 Feb 1.0 19:27:39 10° NW 19:31:43 52° NNE 19:32:45 40° ENE visible
09 Feb 0.7 19:19:32 10° WNW 19:23:42 73° NNE 19:25:50 28° ESE visible
10 Feb 0.9 19:11:29 10° WNW 19:15:40 78° SSW 19:19:00 16° ESE visible
